STF-1 (43852 NORAD) Tracking and Keplerian Element Data

This shows tracking and keplerian element data for the satellite.

Feedback or suggestion? Click here.




ElementValue
Catalog43852
NameSTF-1
Epoch Orbit3288
Epoch Day201.7656666
Epoch Year2019
RAAN35.508
Inclination85.0317
Eccentricity0.0013203
Argument of Perigee219.8971
Mean Anonmoly140.1298
Mean Motion15.20639139
Decay Rate4.1E-07
L11 43852U 18104D 19201.76566660 .00000041 00000-0 00000-0 0 9996
L22 43852 85.0317 35.5080 0013203 219.8971 140.1298 15.20639139 32880

Live tracking and technical data element details for STF-1 (NORAD 43852). STF-1 can be tracked NOW for your location showing map with azimuth and elevation plus other details from your city location.

Track the satellite on the map from your city or location and see movement details for azimuth, elevation, latitude, longitude, range, height, and movement on the map or in text.







IsCatalogInMostPopularTable: catalog: 43852, numindb: 111
Update: records affected: 1



GetName: 43852 STF-1

Hit Count: updated at: Sun, 21 Jul 2019 14:43:34 GMT